Regional Weather Roundup
Issued by NWS Goodland, KS

Home | Current Version | Previous Version | Text Only | Print | Product List | Glossary On
Versions: 1 2 3 4 5 6 7 8 9 10 11 12 13 14 15 16 17 18 19 20 21 22 23 24 25 26 27 28 29 30 31 32 33 34 35 36 37 38 39 40 41 42 43 44 45 46 47 48 49 50
000
ASUS43 KGLD 061108
RWRGLD

GOODLAND FORECAST AREA HOURLY WEATHER ROUNDUP
NATIONAL WEATHER SERVICE GOODLAND KS
400 AM MST FRI MAR 06 2015

...OFFICIAL OBSERVATIONS...

CITY           SKY/WX    TMP DP  RH WIND       PRES   REMARKS
GOODLAND KS    CLEAR     26  20  77 W10       30.24F WCI  16
HILL CITY KS   CLEAR     27  18  69 W9        30.26R
IMPERIAL NEB     N/A     28  17  63 W12       30.22S WCI  18
MCCOOK NEB     CLEAR     24  17  74 W9        30.23S
AKRON CO       CLEAR     24  17  74 W13       30.23R WCI  12
BURLINGTON CO  CLEAR     26  19  74 W9        30.24F
LIMON CO       PTCLDY     6   1  80 N7        30.25S
$$

...UNOFFICIAL OBSERVATIONS...

CITY           SKY/WX    TMP DP  RH WIND       PRES   REMARKS
COLBY KS       CLEAR     25  25 100 W7        30.25S
GOVE KS          N/A     23  32 100 MISG        N/A
NORTON KS      CLEAR     19  12  73 W7        30.23R
SHARON SPRINGS   N/A     25  20  82 CALM        N/A
YUMA CO          N/A     22  17  80 N8          N/A
$$



USA.gov is the U.S. government's official web portal to all federal, state and local government web resources and services.